Zurück zum Katalog

STARLINK-38091

AktivKommunikationSSO
NORAD 69997·PAYLOAD·🇺🇸 United States

Gestartet Jul 11, 2026 von Vandenberg Space Force Base

Loading…

Nächste Überflüge (nächste 24 Stunden)

TLE

AktuellSource: CelesTrak SupGP

Epoche: Sep 14, 2026, 15:01 UTC

1 69997C 26159Y   26257.62618056 -.02657100  00000+0 -32393-1 0  2579
2 69997  97.2844  99.4750 0001510  79.8075 268.1001 15.61866861    10

Verfolge STARLINK-38091 in Echtzeit mit AllMySat

Download on the App Store